Погода в Лихославле

Россия / Тверская область     57°07′19″N   35°28′00″E
темп.,
°C
ветер,
м/с
пор.,
м/с
влажн.,
%
обл.,
%
осадки,
мм/ч
давл.,
гПа
погр.,
м
11 мая, вт
вт1100:00+7юв22696 0.0 102814
03:00+5вюв117597 0.0 102910
06:00+7в12739 0.0 102943
09:00+12в2352100 0.0 1029417
12:00+17в3539100 0.0 10281015
15:00+19в34375 0.0 10271136
18:00+18в35497 0.0 1026780
21:00+11в367236 0.0 102794
12 мая, ср
ср1200:00+9вюв38830 0.0 1027132
03:00+9в22930 0.0 102714
06:00+10в24927 0.0 102798
09:00+17вюв24695 0.0 1027518
12:00+21в35565 0.0 10251250
15:00+21в5859100 1.6 10231500
18:00+19в5107897 1.8 1021976
21:00+15в513887 3.9 1019587
13 мая, чт
чт1300:00+14юв4109237 1.4 1020635
03:00+10юв389841 1.5 1020295
06:00+9вюв389717 0.0 1020338
09:00+14юв46787 0.0 1020702
12:00+18вюв465469 0.0 10181550
15:00+11ююз3795100 3.9 1017261
18:00+11ю3696100 2.1 1015274
21:00+10юв2697100 2.1 1015121
14 мая, пт
пт1400:00+9юв279876 0.0 1016160
03:00+8ююв24978 0.0 101668
06:00+9юв259636 0.0 1017164
09:00+13ююв3581100 0.0 1017427
12:00+17ююв466138 0.0 10161127
15:00+18юв366593 0.0 1015457
18:00+17вюв41083100 1.1 1013364
21:00+15в41095100 4.0 1011269
15 мая, сб
сб1500:00+14вюв41196100 0.4 1010304
03:00+14юв4119799 0.9 1009377
06:00+14юв31197100 0.0 1008396
09:00+18ююв598347 0.0 1007715
12:00+21ююв686199 0.2 10071485
15:00+21ю5873100 1.6 10051148
18:00+18ююз48835 1.8 1005878
21:00+14ююз411905 2.1 1006493